{"data":{"norad_id":45198,"intl_designator":"2020-012W","name":"STARLINK-1154","alt_names":[],"object_type":"PAYLOAD","status":"ACTIVE","operator":null,"country":"US","launch_date":"2020-02-17","launch_site_code":"AFETR","launch_vehicle":null,"mission":null,"orbit_class":"UNKNOWN","rcs_meters":null,"size_class":null,"mass_kg":null,"dimensions":null,"purposes":["comms"],"wikipedia_slug":null,"has_3d_model":false,"image_url":null,"decayed_at":null,"tle_current":{"epoch":"2026-09-20T04:34:19.187040Z","epoch_age_seconds":41226,"freshness":"FRESH","line1":"1 45198U 20012W   26263.19049985  .00039217  00000+0  29001-3 0  9992","line2":"2 45198  53.0370 140.2153 0001320  65.1051 295.0104 15.72581044365683","mean_motion":15.72581044,"eccentricity":0.000132,"inclination_deg":53.037,"raan_deg":140.2153,"arg_perigee_deg":65.1051,"mean_anomaly_deg":295.0104,"bstar":0.00029001,"rev_number":36568,"period_min":91.569207545401,"perigee_km":350.6351084544,"apogee_km":352.41173880624,"semimajor_km":6729.6604236303,"source":"CELESTRAK","updated_at":"2026-09-20T09:00:38.226841Z"}}}